bpm-power.com alexa rank chart, bpm-power.com alexa rank daily changes

bpm-power.com alexa rank chart, bpm-power.com alexa rank daily changes

bpm-power.com
Actual rank:
54 735

RANK HISTORY

Date Rank Diff
2017/12/13 54 735 +870
2017/12/12 53 865 -801
2017/12/11 54 666 +1 064
2017/12/10 53 602 +623
2017/12/09 52 979 +191
2017/12/08 52 788 +1 051
2017/12/07 51 737 -5
2017/12/06 51 742 -311
2017/12/05 52 053 +272
2017/12/04 51 781 +687
2017/12/03 51 094 +683
2017/12/02 50 411 -1 053
2017/12/01 51 464 +641
2017/11/30 50 823 -255
2017/11/29 51 078 -1 748
2017/11/28 52 826 +1 359
2017/11/27 51 467 +764
2017/11/26 50 703 -2 275
2017/11/25 52 978 -181
2017/11/24 53 159 -1 264
2017/11/23 54 423 -264
2017/11/22 54 687 +365
2017/11/21 54 322 +830
2017/11/20 53 492 -867
2017/11/19 54 359 +221
2017/11/18 54 138 -386
2017/11/17 54 524 -655
2017/11/16 55 179 -1 077
2017/11/15 56 256 +754
2017/11/14 55 502 -513
2017/11/13 56 015 +183
2017/11/12 55 832 +1 035
2017/11/11 54 797 -640
2017/11/10 55 437 -1 332
2017/11/09 56 769 -53
2017/11/08 56 822 +227
2017/11/07 56 595 +202
2017/11/06 56 393 -438
2017/11/05 56 831 -45
2017/11/04 56 876 -772
2017/11/03 57 648 -709
2017/11/02 58 357 -40
2017/11/01 58 397 -993
2017/10/31 59 390 -753
2017/10/30 60 143 +855
2017/10/29 59 288 +243
2017/10/28 59 045 -657
2017/10/27 59 702 -685
2017/10/26 60 387 +79
2017/10/25 60 308 -1 706
2017/10/24 62 014 +544
2017/10/23 61 470 +579
2017/10/22 60 891 -605
2017/10/21 61 496 +615
2017/10/20 60 881 +1 666
2017/10/19 59 215 -560
2017/10/18 59 775 +1 168
2017/10/17 58 607 +611
2017/10/16 57 996 +440
2017/10/14 57 556

WIDGET FOR YOUR SITE

DOMAINS WITH THE NEAREST RANK

Domain Rank
mamadu.pl 54 730
greatminds.org 54 731
unogoal.me 54 732
eastcoastdaily.com 54 733
xfznw.com 54 734
bpm-power.com 54 735
ovego.tv 54 736
saga.co.uk 54 737
jackboxgames.com 54 738
vets.gov 54 739
teachstarter.com 54 740

DOMAINS WITH THE NEAREST RANK BY TLD .com

Domain Rank
referralkey.com 54 725
ludijogos.com 54 728
thepunctuationguide.com 54 729
eastcoastdaily.com 54 733
xfznw.com 54 734
bpm-power.com 54 735
jackboxgames.com 54 738
teachstarter.com 54 740
tractorhouse.com 54 741
9e5420f6be48ccc.com 54 742
youivr.com 54 743